| time (UTC) | temp F | wind direction | speed MPH | gust MPH | rain 1hr in | rain 24hr in | rain mn in | humidity % | barometer mb |
| 20260504204559 | 81 | 360 | 1.0 | 6.0 | 0.00 | 0.00 | 0.00 | 16 | 885.2 |
| 20260504203111 | 81 | 332 | 1.0 | 12.0 | 0.00 | 0.00 | 0.00 | 17 | 885.5 |
| 20260504201600 | 82 | 360 | 0.0 | 2.0 | 0.00 | 0.00 | 0.00 | 15 | 885.6 |
| 20260504194551 | 81 | 360 | 0.0 | 2.0 | 0.00 | 0.00 | 0.00 | 15 | 885.8 |
| 20260504193050 | 81 | 360 | 0.0 | 2.0 | 0.00 | 0.00 | 0.00 | 15 | 886.0 |
| 20260504191554 | 80 | 360 | 0.0 | 4.0 | 0.00 | 0.00 | 0.00 | 16 | 886.1 |
| 20260504190046 | 79 | 101 | 0.0 | 2.0 | 0.00 | 0.00 | 0.00 | 17 | 886.2 |
| 20260504184539 | 78 | 355 | 0.0 | 2.0 | 0.00 | 0.00 | 0.00 | 17 | 886.3 |
| 20260504183035 | 78 | 40 | 0.0 | 1.0 | 0.00 | 0.00 | 0.00 | 19 | 886.5 |
| 20260504181538 | 77 | 333 | 0.0 | 2.0 | 0.00 | 0.00 | 0.00 | 19 | 886.7 |
| 20260504180029 | 76 | 22 | 1.0 | 4.0 | 0.00 | 0.00 | 0.00 | 19 | 887.0 |
| 20260504174527 | 76 | 340 | 1.0 | 3.0 | 0.00 | 0.00 | 0.00 | 19 | 887.2 |
| 20260504173026 | 76 | 222 | 0.0 | 3.0 | 0.00 | 0.00 | 0.00 | 18 | 887.4 |
| 20260504171523 | 76 | 343 | 1.0 | 8.0 | 0.00 | 0.00 | 0.00 | 19 | 887.5 |
| 20260504150108 | 66 | 221 | 0.0 | 3.0 | 0.00 | 0.00 | 0.00 | 35 | 887.7 |
| 20260504081514 | 48 | 360 | 0.0 | 0.0 | 0.00 | 0.00 | 0.00 | 57 | 888.3 |
| 20260504044544 | 57 | 32 | 0.0 | 0.0 | 0.00 | 0.00 | 0.00 | 43 | 889.6 |
| 20260504043037 | 57 | 12 | 0.0 | 1.0 | 0.00 | 0.00 | 0.00 | 43 | 889.7 |
| 20260504041536 | 56 | 31 | 0.0 | 0.0 | 0.00 | 0.00 | 0.00 | 44 | 889.8 |
| 20260504040044 | 56 | 11 | 0.0 | 0.0 | 0.00 | 0.00 | 0.00 | 43 | 889.8 |
| 20260504034541 | 57 | 355 | 0.0 | 0.0 | 0.00 | 0.00 | 0.00 | 41 | 889.8 |
| 20260504033034 | 57 | 360 | 0.0 | 0.0 | 0.00 | 0.00 | 0.00 | 40 | 889.9 |
| 20260504031534 | 59 | 360 | 0.0 | 0.0 | 0.00 | 0.00 | 0.00 | 39 | 889.8 |
| 20260504030033 | 60 | 360 | 0.0 | 1.0 | 0.00 | 0.00 | 0.00 | 37 | 889.8 |
| 20260504024533 | 62 | 360 | 0.0 | 0.0 | 0.00 | 0.00 | 0.00 | 36 | 889.8 |
| 20260504023033 | 63 | 360 | 0.0 | 0.0 | 0.00 | 0.00 | 0.00 | 35 | 889.8 |
| 20260504021532 | 64 | 360 | 0.0 | 0.0 | 0.00 | 0.00 | 0.00 | 34 | 889.8 |
| 20260504020031 | 66 | 360 | 0.0 | 0.0 | 0.00 | 0.00 | 0.00 | 33 | 889.8 |
| 20260504014534 | 68 | 360 | 0.0 | 0.0 | 0.00 | 0.00 | 0.00 | 31 | 889.6 |
| 20260504013040 | 69 | 360 | 0.0 | 0.0 | 0.00 | 0.00 | 0.00 | 30 | 889.6 |
| 20260504011530 | 71 | 360 | 0.0 | 0.0 | 0.00 | 0.00 | 0.00 | 28 | 889.5 |
| 20260504010029 | 72 | 360 | 0.0 | 0.0 | 0.00 | 0.00 | 0.00 | 27 | 889.5 |
| 20260504004528 | 73 | 360 | 0.0 | 0.0 | 0.00 | 0.00 | 0.00 | 25 | 889.5 |
| 20260504003027 | 74 | 342 | 0.0 | 1.0 | 0.00 | 0.00 | 0.00 | 24 | 889.5 |
| 20260504001526 | 75 | 325 | 0.0 | 5.0 | 0.00 | 0.00 | 0.00 | 22 | 889.7 |
| 20260504000024 | 76 | 333 | 0.0 | 2.0 | 0.00 | 0.00 | 0.00 | 21 | 889.8 |
| 20260503234524 | 76 | 338 | 0.0 | 2.0 | 0.00 | 0.00 | 0.00 | 21 | 889.9 |
| 20260503233022 | 77 | 336 | 0.0 | 1.0 | 0.00 | 0.00 | 0.00 | 20 | 890.1 |
| 20260503231522 | 77 | 344 | 0.0 | 2.0 | 0.00 | 0.00 | 0.00 | 19 | 890.2 |
| 20260503230020 | 77 | 360 | 0.0 | 0.0 | 0.00 | 0.00 | 0.00 | 19 | 890.2 |
| 20260503224519 | 78 | 355 | 1.0 | 3.0 | 0.00 | 0.00 | 0.00 | 19 | 890.3 |
| 20260503223017 | 78 | 360 | 0.0 | 0.0 | 0.00 | 0.00 | 0.00 | 18 | 890.6 |
| 20260503221514 | 78 | 350 | 0.0 | 0.0 | 0.00 | 0.00 | 0.00 | 19 | 890.7 |
| 20260503220013 | 77 | 360 | 0.0 | 1.0 | 0.00 | 0.00 | 0.00 | 19 | 890.9 |
| 20260503214510 | 78 | 250 | 0.0 | 2.0 | 0.00 | 0.00 | 0.00 | 19 | 891.1 |
| 20260503213010 | 77 | 15 | 0.0 | 1.0 | 0.00 | 0.00 | 0.00 | 20 | 891.3 |
| 20260503211504 | 76 | 148 | 0.0 | 1.0 | 0.00 | 0.00 | 0.00 | 20 | 891.6 |
| 20260503210002 | 76 | 360 | 0.0 | 1.0 | 0.00 | 0.00 | 0.00 | 20 | 891.7 |